Weather History for PATK - February, 2014

Change the Weather History Date:

Sunday, February 2, 2014

  Actual Average Record
Temperature  
Mean Temperature 18 °F -  
Max Temperature 35 °F 22 °F 40 °F (1981)
Min Temperature 1 °F 2 °F -42 °F (1999)
Degree Days  
Heating Degree Days 47    
Moisture  
Dew Point 7 °F    
Average Humidity 68    
Maximum Humidity 84    
Minimum Humidity 42    
Precipitation  
Precipitation 0.00 in - - ()
Sea Level Pressure  
Sea Level Pressure 30.42 in    
Wind  
Wind Speed 1 mph (NNE)    
Max Wind Speed 7 mph    
Max Gust Speed -    
Visibility 10 miles    
Events      
Averages and records for this station are not official NWS values.
T = Trace of Precipitation, MM = Missing Value Source: NWS Daily Summary

Daily Weather History Graph

Daily Weather History Graph

Search for Another Location

Airport or City:

Trip Planner

Search our weather history database for the weather conditions in past years. The results will help you decide how hot, cold, wet, or windy it might be!

Date:

Astronomy

Feb. 02, 2014 Rise Set
Actual Time 9:24 AM AKST 5:04 PM AKST
Civil Twilight 8:32 AM AKST 5:56 PM AKST
Nautical Twilight 7:38 AM AKST 6:51 PM AKST
Astronomical Twilight 6:45 AM AKST 7:43 PM AKST
Moon 9:39 AM AKST (2/2) 10:29 PM AKST (2/2)
Length of Visible Light 9h 23m
Length of Day
7h 40m
Waxing Crescent, 12% of the Moon is Illuminated
Feb 2
Waxing Crescent
Feb 6
First Quarter
Feb 14
Full
Feb 22
Last Quarter
Feb 28
New

Hourly Weather History & Observations

Time (AKST) Temp. Windchill Dew Point Humidity Pressure Visibility Wind Dir Wind Speed Gust Speed Precip Events Conditions
12:53 AM 3.9 °F - -0.9 °F 80% 30.43 in 10.0 mi Calm Calm - N/A   Clear
1:53 AM 1.9 °F - -2.0 °F 83% 30.43 in 9.0 mi Calm Calm - N/A   Clear
3:53 AM 1.9 °F - -2.0 °F 83% 30.43 in 10.0 mi Calm Calm - N/A   Clear
4:53 AM 3.0 °F -4.4 °F -2.0 °F 80% 30.42 in 10.0 mi NNE 3.5 mph - N/A   Clear
5:53 AM 5.0 °F - 1.0 °F 84% 30.41 in 10.0 mi Calm Calm - N/A   Clear
6:53 AM 5.0 °F - 1.0 °F 84% 30.41 in 10.0 mi Calm Calm - N/A   Clear
7:53 AM 6.1 °F - 1.9 °F 83% 30.41 in 10.0 mi Calm Calm - N/A   Clear
8:53 AM 6.1 °F - 1.0 °F 80% 30.41 in 10.0 mi Calm Calm - N/A   Partly Cloudy
9:53 AM 6.1 °F - 1.9 °F 83% 30.42 in 10.0 mi Calm Calm - N/A   Partly Cloudy
10:53 AM 10.0 °F - 5.0 °F 80% 30.41 in 10.0 mi Calm Calm - N/A   Partly Cloudy
11:53 AM 18.0 °F 9.8 °F 10.0 °F 71% 30.41 in 10.0 mi NE 5.8 mph - N/A   Partly Cloudy
12:53 PM 17.1 °F - 9.0 °F 71% 30.42 in 10.0 mi Calm Calm - N/A   Partly Cloudy
1:53 PM 25.0 °F - 12.0 °F 58% 30.41 in 10.0 mi Calm Calm - N/A   Partly Cloudy
2:53 PM 28.0 °F - 14.0 °F 56% 30.40 in 10.0 mi Calm Calm - N/A   Partly Cloudy
3:53 PM 34.0 °F - 14.0 °F 44% 30.39 in 10.0 mi Calm Calm - N/A   Partly Cloudy
4:53 PM 30.0 °F 24.1 °F 12.9 °F 49% 30.39 in 10.0 mi NE 5.8 mph - N/A   Partly Cloudy
5:53 PM 30.0 °F 26.5 °F 12.9 °F 49% 30.40 in 10.0 mi NNE 3.5 mph - N/A   Clear
6:53 PM 27.0 °F - 12.9 °F 56% 30.40 in 10.0 mi Calm Calm - N/A   Clear
7:53 PM 21.9 °F 17.2 °F 12.0 °F 66% 30.41 in 10.0 mi East 3.5 mph - N/A   Clear
8:53 PM 17.1 °F 10.0 °F 10.0 °F 74% 30.42 in 10.0 mi NNE 4.6 mph - N/A   Clear
9:53 PM 24.1 °F 19.7 °F 12.0 °F 60% 30.43 in 10.0 mi North 3.5 mph - N/A   Clear
10:53 PM 25.0 °F 17.1 °F 12.0 °F 58% 30.45 in 10.0 mi North 6.9 mph - N/A   Clear
11:53 PM 25.0 °F 19.3 °F 12.0 °F 58% 30.45 in 10.0 mi North 4.6 mph - N/A   Clear